Location: Blankensee
(53.5126°N, 14.3055°E)
Time: 16:40:02
(UTC+00:00)

NOSS 0 Rocket - Pass Details

Date: 08 August 2020
Orbit: 934 x 956 km, 70.0° (Epoch: 19 September)

Event Time Altitude Azimuth Distance (km) Brightness Sun altitude
Rises 00:04:38 0° 324° (NW) 3,636 7.6 -19.4°
Reaches altitude 10° 00:07:13 10° 320° (NW) 2,690 6.8 -19.3°
Maximum altitude 00:13:15 53° 246° (WSW) 1,167 4.1 -19.0°
Enters shadow 00:15:55 32° 188° (S) 1,586 4.5 -18.9°
